Flag for Germany Weather past 2 weeks in Völklingen, Saarland, Germany

54 °F

Light rain. Fog.

Feels Like: 52 °F
Forecast: 49 / 67 °F
Wind: 6 mph from South

Location: Saarbruecken / Ensheim

Current Time: Oct 4, 2015 at 7:36:47 AM

Latest Report: Oct 4, 2015 at 7:20 AM

Visibility: 3 mi

Pressure: 30.04 "Hg

Humidity: 94%

Dew point: 52 °F

Location of VölklingenLocation

Historic Weather in Völklingen — Graph


Völklingen temperature yesterday

Maximum temperature yesterday: 68 °F (at 4:20 PM)
Minimum temperature yesterday: 48 °F (at 4:20 AM)
Average temperature yesterday: 56 °F

Past Weeks' High & Low Weather Summary

High68 °F (Oct 3, 4:20 PM)100% (Sep 20, 7:50 AM)30.54 "Hg (Sep 20, 7:50 AM)
Low41 °F (Sep 21, 7:20 AM)37% (Sep 29, 3:20 PM)29.59 "Hg (Sep 22, 5:20 PM)
Average53 °F73%30.17 "Hg
* Reported Sep 19 6:20 AM — Oct 4 6:20 AM, Völklingen, Weather by CustomWeather, © 2015

Note: Actual official high and low records may vary slightly from our data, if they occured in-between our weather recording intervals... More about our weather records


Völklingen weather history for previous 24 hours

Time TempWeatherWind HumidityBarometerVisibility
6:20 AM
Sun, Oct 4
54 °FLight rain. Mostly cloudy.6 mph94%30.04 "Hg4 mi
5:50 AM54 °FLight rain. Mostly cloudy.5 mph94%30.04 "Hg4 mi
5:20 AM54 °FLight rain. Mostly cloudy.5 mph94%30.04 "Hg4 mi
4:50 AM54 °FLight rain. Mostly cloudy.5 mph88%30.01 "Hg5 mi
4:20 AM54 °FLight rain. Mostly cloudy.5 mph88%30.01 "HgN/A
3:50 AM54 °FLight rain. Mostly cloudy.5 mph88%30.01 "HgN/A
3:20 AM54 °FClear.6 mph88%30.01 "Hg10 mi
2:50 AM54 °FPassing clouds.9 mph88%30.01 "HgN/A
2:20 AM54 °FPassing clouds.5 mph88%30.01 "HgN/A
1:50 AM54 °FClear.1 mph88%29.98 "Hg10 mi
1:20 AM54 °FClear.5 mph82%30.01 "Hg10 mi
12:50 AM55 °FPassing clouds.3 mph82%30.01 "HgN/A
11:20 PM
Sat, Oct 3
54 °FClear.1 mph82%29.98 "Hg10 mi
10:50 PM54 °FClear.2 mph82%29.98 "Hg10 mi
10:20 PM54 °FClear.2 mph82%29.98 "Hg10 mi
9:50 PM54 °FClear.1 mph82%29.98 "Hg10 mi
9:20 PM54 °FClear.2 mph77%29.98 "Hg10 mi
8:50 PM54 °FClear.2 mph82%29.98 "Hg10 mi
8:20 PM55 °FClear.2 mph77%29.98 "Hg10 mi
7:50 PM57 °FSunny.2 mph72%29.98 "Hg10 mi
7:20 PM61 °FSunny.3 mph63%29.98 "Hg10 mi
6:50 PM63 °FSunny.5 mph64%29.98 "Hg10 mi
6:20 PM63 °FSunny.3 mph64%29.95 "Hg10 mi
5:50 PM64 °FSunny.2 mph60%29.98 "Hg10 mi
5:20 PM64 °FPassing clouds.6 mph60%29.98 "HgN/A
4:50 PM66 °FPassing clouds.8 mph52%29.98 "HgN/A
4:20 PM68 °FPassing clouds.14 mph49%29.98 "HgN/A
3:50 PM66 °FPassing clouds.5 mph52%29.98 "HgN/A
3:20 PM64 °FPassing clouds.7 mph56%29.98 "HgN/A
2:50 PM64 °FPassing clouds.6 mph64%29.98 "HgN/A
2:20 PM63 °FPassing clouds.8 mph64%29.98 "HgN/A
1:50 PM63 °FSunny.8 mph64%30.01 "Hg10 mi
1:20 PM63 °FPassing clouds.8 mph64%30.01 "HgN/A
12:50 PM59 °FPassing clouds.7 mph72%30.01 "HgN/A
12:20 PM59 °FSunny.8 mph68%30.04 "Hg10 mi
11:50 AM57 °FSunny.10 mph72%30.04 "Hg10 mi
11:20 AM59 °FPassing clouds.9 mph72%30.04 "HgN/A
10:50 AM57 °FPassing clouds.9 mph72%30.04 "HgN/A
10:20 AM55 °FPassing clouds.9 mph77%30.04 "HgN/A
9:50 AM54 °FSunny.8 mph77%30.04 "Hg10 mi
9:20 AM52 °FSunny.9 mph82%30.04 "Hg10 mi
8:50 AM52 °FSunny.8 mph77%30.04 "Hg10 mi
8:20 AM50 °FPassing clouds.7 mph82%30.01 "HgN/A
7:50 AM48 °FClear.2 mph87%30.01 "Hg10 mi
7:20 AM48 °FClear.2 mph82%30.01 "Hg10 mi
Weather by CustomWeather, © 2015

See weather overviewHow to use our weather pages